{"data":{"norad_id":61559,"epoch":"2026-05-25T03:28:43.281696Z","epoch_age_seconds":59750,"freshness":"FRESH","line1":"1 61559U 24185H   26145.14494539  .00000215  00000+0  20184-3 0  9998","line2":"2 61559  88.9838  62.1009 0003671 224.4243 135.6629 13.77902443 91178","mean_motion":13.77902443,"eccentricity":0.0003671,"inclination_deg":88.9838,"raan_deg":62.1009,"arg_perigee_deg":224.4243,"mean_anomaly_deg":135.6629,"bstar":0.00020184,"rev_number":9117,"period_min":104.50667297351,"perigee_km":968.63793754332,"apogee_km":974.03392056783,"semimajor_km":7349.4729290556,"source":"CELESTRAK","updated_at":"2026-05-25T13:38:02.414287Z"}}